GW1230 Weather Reports


Display with metric or nautical units.
time (UTC)temp
F
wind
direction
speed
MPH
gust
MPH
rain 1hr
in
rain 24hr
in
rain mn
in
humidity
%
barometer
mb
20260506044851 61 150 4.0 5.0 0.00 0.00 0.00 80 1015.3
20260506044349 61 210 4.0 6.0 0.00 0.00 0.00 80 1015.2
20260506043846 61 189 3.0 3.0 0.00 0.00 0.00 80 1015.4
20260506043343 61 196 5.0 6.0 0.00 0.00 0.00 80 1015.3
20260506042841 61 209 3.0 5.0 0.00 0.00 0.00 80 1015.4
20260506042340 61 197 6.0 8.0 0.00 0.00 0.00 80 1015.1
20260506041838 61 202 5.0 7.0 0.00 0.00 0.00 80 1015.3
20260506041335 61 197 5.0 6.0 0.00 0.00 0.00 80 1015.1
20260506040832 61 209 3.0 3.0 0.00 0.00 0.00 80 1015.2
20260506040329 61 209 3.0 5.0 0.00 0.00 0.00 80 1015.1
20260506035825 61 208 2.0 2.0 0.00 0.00 0.00 79 1015.3
20260506035323 62 255 3.0 5.0 0.00 0.00 0.00 79 1015.1
20260506034820 62 271 0.0 1.0 0.00 0.00 0.00 78 1015.0
20260506034317 62 245 2.0 3.0 0.00 0.00 0.00 78 1015.2
20260506033814 62 254 0.0 2.0 0.00 0.00 0.00 78 1015.0
20260506033311 62 218 1.0 2.0 0.00 0.00 0.00 77 1014.9
20260506032808 62 223 1.0 2.0 0.00 0.00 0.00 77 1014.9
20260506032306 62 237 2.0 3.0 0.00 0.00 0.00 76 1014.8
20260506031801 63 191 5.0 6.0 0.00 0.00 0.00 76 1015.0
20260506031259 63 196 3.0 3.0 0.00 0.00 0.00 75 1014.8
20260506030757 63 177 4.0 5.0 0.00 0.00 0.00 75 1014.6
20260506030254 63 182 6.0 7.0 0.00 0.00 0.00 75 1014.8
20260506025751 63 195 5.0 7.0 0.00 0.00 0.00 75 1014.7
20260506025247 63 201 2.0 2.0 0.00 0.00 0.00 74 1014.8
20260506024744 63 186 3.0 3.0 0.00 0.00 0.00 74 1014.8
20260506024241 63 232 4.0 6.0 0.00 0.00 0.00 74 1014.8
20260506023737 63 195 6.0 7.0 0.00 0.00 0.00 74 1014.7
20260506023234 64 202 6.0 7.0 0.00 0.00 0.00 73 1014.6
20260506022731 64 247 4.0 5.0 0.00 0.00 0.00 73 1014.6
20260506022229 64 232 2.0 2.0 0.00 0.00 0.00 73 1014.8
20260506021727 64 180 7.0 9.0 0.00 0.00 0.00 73 1014.6
20260506021224 64 184 7.0 9.0 0.00 0.00 0.00 73 1014.6
20260506020720 64 191 10.0 10.0 0.00 0.00 0.00 72 1014.5
20260506020218 64 194 5.0 6.0 0.00 0.00 0.00 72 1014.7
20260506015710 64 175 5.0 6.0 0.00 0.00 0.00 73 1015.1
20260506015207 64 174 5.0 6.0 0.00 0.00 0.00 72 1014.8
20260506014704 65 205 4.0 7.0 0.00 0.00 0.00 71 1014.7
20260506014200 65 198 2.0 2.0 0.00 0.00 0.00 70 1014.9
20260506013658 65 245 3.0 5.0 0.00 0.00 0.00 70 1014.8
20260506013155 64 183 3.0 3.0 0.00 0.00 0.00 72 1014.8
20260506012651 65 187 5.0 8.0 0.00 0.00 0.00 70 1014.8
20260506012148 65 274 1.0 2.0 0.00 0.00 0.00 70 1014.7
20260506011645 64 190 6.0 7.0 0.00 0.00 0.00 71 1014.8
20260506011141 64 240 1.0 1.0 0.00 0.00 0.00 72 1014.8
20260506010640 65 191 5.0 7.0 0.00 0.00 0.00 71 1014.8
20260506010137 64 214 5.0 7.0 0.00 0.00 0.00 72 1014.8
20260506005634 64 231 4.0 5.0 0.00 0.00 0.00 72 1014.7
20260506005131 64 210 4.0 6.0 0.00 0.00 0.00 73 1015.0
20260506004627 64 195 5.0 6.0 0.00 0.00 0.00 73 1014.8
20260506004124 65 210 2.0 3.0 0.00 0.00 0.00 72 1014.9
20260506003620 64 263 2.0 2.0 0.00 0.00 0.00 74 1014.9
20260506003116 64 196 5.0 6.0 0.00 0.00 0.00 74 1014.8
20260506002613 63 255 5.0 6.0 0.00 0.00 0.00 74 1015.1
20260506002109 64 207 3.0 3.0 0.00 0.00 0.00 74 1014.9
20260506001605 63 204 6.0 7.0 0.00 0.00 0.00 74 1015.1
20260506001102 64 182 6.0 8.0 0.00 0.00 0.00 73 1014.9
20260506000600 64 192 4.0 5.0 0.00 0.00 0.00 72 1015.0
20260506000057 63 200 11.0 13.0 0.00 0.00 0.00 74 1015.2
20260505235555 63 142 6.0 7.0 0.00 0.00 0.00 74 1015.2
20260505235052 64 181 6.0 7.0 0.00 0.00 0.00 73 1015.5
20260505234549 63 210 3.0 5.0 0.00 0.00 0.00 73 1015.3
20260505234045 63 182 5.0 7.0 0.00 0.00 0.00 74 1015.4
20260505233543 63 223 5.0 6.0 0.00 0.00 0.00 74 1015.4
20260505233040 63 215 6.0 8.0 0.00 0.00 0.00 74 1015.5
20260505232538 63 182 4.0 7.0 0.00 0.00 0.00 74 1015.5
20260505232035 64 260 2.0 2.0 0.00 0.00 0.00 73 1015.8
20260505231532 62 194 8.0 9.0 0.00 0.00 0.00 74 1015.6
20260505231031 62 196 6.0 9.0 0.00 0.00 0.00 76 1015.6
20260505230528 61 138 4.0 5.0 0.00 0.00 0.00 77 1015.5
20260505230024 63 156 7.0 9.0 0.00 0.00 0.00 74 1015.6
20260505225521 63 210 4.0 8.0 0.00 0.00 0.00 74 1015.9
20260505225017 62 219 1.0 2.0 0.00 0.00 0.00 76 1015.7
20260505224514 63 198 8.0 13.0 0.00 0.00 0.00 75 1015.9
20260505224011 62 210 2.0 2.0 0.00 0.00 0.00 76 1015.7
20260505223508 62 191 9.0 10.0 0.00 0.00 0.00 76 1015.6
20260505223004 62 184 3.0 7.0 0.00 0.00 0.00 76 1015.9
20260505222501 62 193 11.0 13.0 0.00 0.00 0.00 76 1015.9
20260505221956 61 226 7.0 9.0 0.00 0.00 0.00 78 1016.1
20260505221454 61 221 7.0 9.0 0.00 0.00 0.00 77 1016.1
20260505220951 60 200 3.0 5.0 0.00 0.00 0.00 79 1016.1
20260505220448 60 147 2.0 2.0 0.00 0.00 0.00 78 1016.2
20260505215945 60 241 2.0 2.0 0.00 0.00 0.00 78 1016.3
20260505215444 60 178 5.0 7.0 0.00 0.00 0.00 78 1016.2
20260505214941 60 225 3.0 5.0 0.00 0.00 0.00 78 1016.5
20260505214439 60 219 6.0 7.0 0.00 0.00 0.00 79 1016.2
20260505213936 60 245 4.0 5.0 0.00 0.00 0.00 79 1016.3
20260505213433 60 180 5.0 6.0 0.00 0.00 0.00 80 1016.3
20260505212929 59 161 3.0 3.0 0.00 0.00 0.00 79 1016.2
20260505212426 60 209 3.0 3.0 0.00 0.00 0.00 79 1016.5
20260505211923 60 165 3.0 3.0 0.00 0.00 0.00 80 1016.5
20260505211420 60 176 7.0 8.0 0.00 0.00 0.00 78 1016.2
20260505210917 60 193 5.0 6.0 0.00 0.00 0.00 78 1016.3
20260505210414 59 186 2.0 2.0 0.00 0.00 0.00 80 1016.3
20260505205911 60 212 3.0 3.0 0.00 0.00 0.00 79 1016.3
20260505205409 59 216 4.0 5.0 0.00 0.00 0.00 79 1016.4
20260505204906 59 173 5.0 6.0 0.00 0.00 0.00 80 1016.2
20260505204403 59 174 1.0 2.0 0.00 0.00 0.00 80 1016.3
20260505203900 60 186 9.0 11.0 0.00 0.00 0.00 79 1016.6
20260505203357 59 222 1.0 2.0 0.00 0.00 0.00 80 1016.6
20260505202853 58 201 8.0 10.0 0.00 0.00 0.00 81 1016.6
20260505202349 58 201 7.0 8.0 0.00 0.00 0.00 81 1016.5
20260505201846 58 186 7.0 8.0 0.00 0.00 0.00 81 1016.6
20260505201343 58 198 6.0 7.0 0.00 0.00 0.00 82 1016.4
20260505200842 58 264 1.0 2.0 0.00 0.00 0.00 82 1016.5
20260505200338 59 273 1.0 1.0 0.00 0.00 0.00 82 1016.5
20260505195834 58 222 3.0 3.0 0.00 0.00 0.00 82 1016.4
20260505195331 58 269 3.0 5.0 0.00 0.00 0.00 82 1016.5
20260505194828 59 216 3.0 5.0 0.00 0.00 0.00 82 1016.4
20260505194325 58 207 3.0 3.0 0.00 0.00 0.00 82 1016.4
20260505193820 58 160 5.0 7.0 0.00 0.00 0.00 83 1016.7
20260505193319 58 243 6.0 7.0 0.00 0.00 0.00 82 1016.5
20260505192816 58 229 6.0 7.0 0.00 0.00 0.00 82 1016.5
20260505192315 58 207 4.0 5.0 0.00 0.00 0.00 83 1016.4
20260505191812 58 217 3.0 5.0 0.00 0.00 0.00 83 1016.5
20260505191310 58 188 4.0 5.0 0.00 0.00 0.00 83 1016.5
20260505190807 57 251 4.0 5.0 0.00 0.00 0.00 83 1016.4
20260505190302 58 264 5.0 6.0 0.00 0.00 0.00 83 1016.4
20260505185758 58 184 5.0 7.0 0.00 0.00 0.00 83 1016.2
20260505185254 57 185 5.0 6.0 0.00 0.00 0.00 84 1016.3
20260505184750 58 192 3.0 5.0 0.00 0.00 0.00 83 1016.3
20260505184248 57 219 2.0 3.0 0.00 0.00 0.00 83 1016.4
20260505183745 57 238 1.0 2.0 0.00 0.00 0.00 84 1016.4
20260505183242 57 186 5.0 7.0 0.00 0.00 0.00 84 1016.3
20260505182738 57 197 5.0 6.0 0.00 0.00 0.00 84 1016.3
20260505182235 57 210 3.0 5.0 0.00 0.00 0.00 84 1016.3
20260505181732 57 179 6.0 7.0 0.00 0.00 0.00 84 1016.6
20260505181229 57 264 2.0 2.0 0.00 0.00 0.00 84 1016.4
20260505180726 57 186 5.0 6.0 0.00 0.00 0.00 84 1016.4
20260505180222 57 209 2.0 2.0 0.00 0.00 0.00 84 1016.4
20260505175719 57 198 2.0 2.0 0.00 0.00 0.00 85 1016.2
20260505175215 56 190 3.0 3.0 0.00 0.00 0.00 85 1016.1
20260505174712 56 201 9.0 11.0 0.00 0.00 0.00 85 1016.3
20260505174209 56 185 5.0 5.0 0.00 0.00 0.00 86 1016.3
20260505173705 56 201 9.0 10.0 0.00 0.00 0.00 85 1016.4
20260505173202 56 208 3.0 6.0 0.00 0.00 0.00 85 1016.5
20260505172659 56 199 2.0 2.0 0.00 0.00 0.00 86 1016.3
20260505172156 56 256 5.0 7.0 0.00 0.00 0.00 85 1016.4
20260505171655 56 176 3.0 3.0 0.00 0.00 0.00 86 1016.1
20260505171152 56 186 7.0 9.0 0.00 0.00 0.00 85 1016.2
20260505170649 56 257 1.0 2.0 0.00 0.00 0.00 86 1016.2
20260505170146 56 198 5.0 6.0 0.00 0.00 0.00 86 1016.2
20260505165646 56 248 1.0 2.0 0.00 0.00 0.00 86 1016.1
20260505165143 56 217 5.0 6.0 0.00 0.00 0.00 86 1016.2
20260505164638 56 204 2.0 2.0 0.00 0.00 0.00 85 1015.9
20260505164136 56 215 5.0 7.0 0.00 0.00 0.00 85 1015.9
20260505163634 56 221 4.0 6.0 0.00 0.00 0.00 86 1016.0
20260505163132 56 206 5.0 7.0 0.00 0.00 0.00 86 1016.1
20260505162629 56 185 6.0 8.0 0.00 0.00 0.00 85 1015.9
20260505162126 56 276 5.0 6.0 0.00 0.00 0.00 85 1015.9
20260505161623 56 269 3.0 5.0 0.00 0.00 0.00 85 1015.9
20260505161120 56 216 5.0 6.0 0.00 0.00 0.00 86 1015.9
20260505160618 56 199 6.0 8.0 0.00 0.00 0.00 86 1015.9
20260505160115 56 178 2.0 3.0 0.00 0.00 0.00 86 1015.8
20260505153055 55 228 3.0 5.0 0.00 0.00 0.00 87 1015.8
20260505152551 55 195 2.0 3.0 0.00 0.00 0.00 88 1015.7
20260505152047 55 194 6.0 8.0 0.00 0.00 0.00 88 1015.6
20260505151542 55 174 1.0 2.0 0.00 0.00 0.00 88 1015.5
20260505151040 55 169 6.0 7.0 0.00 0.00 0.00 88 1015.4
20260505150536 55 224 4.0 5.0 0.00 0.00 0.00 88 1015.5
20260505140502 55 175 7.0 8.0 0.00 0.00 0.00 87 1014.9
20260505124915 55 191 5.0 7.0 0.00 0.00 0.00 88 1014.2
20260505124412 55 196 3.0 3.0 0.00 0.00 0.00 89 1014.2
20260505123908 54 212 8.0 9.0 0.00 0.00 0.00 89 1014.2
20260505123405 54 154 7.0 9.0 0.00 0.00 0.00 89 1014.1
20260505122900 55 194 6.0 7.0 0.00 0.00 0.00 89 1013.9
20260505122358 54 162 9.0 10.0 0.00 0.00 0.00 89 1014.0
20260505121855 54 190 8.0 9.0 0.00 0.00 0.00 89 1014.0
20260505121352 54 177 13.0 17.0 0.00 0.00 0.00 89 1014.1
20260505120847 54 167 5.0 7.0 0.00 0.00 0.00 89 1014.0
20260505120344 54 203 11.0 14.0 0.00 0.00 0.00 89 1014.0
20260505115843 54 172 7.0 10.0 0.00 0.00 0.00 89 1014.1
20260505115340 54 175 4.0 5.0 0.00 0.00 0.00 90 1013.9
20260505114838 54 198 9.0 11.0 0.00 0.00 0.00 90 1013.9
20260505114334 54 181 7.0 8.0 0.00 0.00 0.00 89 1013.9
20260505113830 54 189 7.0 9.0 0.00 0.00 0.00 89 1013.7
20260505113327 54 212 4.0 9.0 0.00 0.00 0.00 90 1013.7
20260505112823 54 175 5.0 7.0 0.00 0.00 0.00 90 1014.0
20260505112321 54 177 10.0 13.0 0.00 0.00 0.00 90 1013.5
20260505111816 54 162 5.0 6.0 0.00 0.00 0.00 90 1013.7
20260505111311 54 212 5.0 6.0 0.00 0.00 0.00 90 1013.7
20260505110808 54 238 2.0 2.0 0.00 0.00 0.00 91 1013.7
20260505110305 54 205 7.0 8.0 0.00 0.00 0.00 90 1013.6
20260505101740 54 202 8.0 9.0 0.00 0.00 0.00 91 1013.2
20260505101235 54 248 2.0 5.0 0.00 0.00 0.00 91 1013.2
20260505100732 54 219 3.0 3.0 0.00 0.00 0.00 91 1013.0
20260505100229 54 190 9.0 10.0 0.00 0.00 0.00 91 1013.1
20260505095724 54 189 4.0 5.0 0.00 0.00 0.00 91 1013.1
20260505095222 54 188 7.0 8.0 0.00 0.00 0.00 91 1013.2
20260505094717 54 181 6.0 7.0 0.00 0.00 0.00 91 1013.2
20260505094214 54 247 3.0 5.0 0.00 0.00 0.00 91 1013.0
20260505093710 54 208 9.0 10.0 0.00 0.00 0.00 91 1012.9
20260505093208 54 200 4.0 6.0 0.00 0.00 0.00 91 1012.9
20260505092704 54 231 1.0 3.0 0.00 0.00 0.00 91 1012.7
20260505092204 54 243 6.0 8.0 0.00 0.00 0.00 90 1012.6
20260505091700 54 180 1.0 2.0 0.00 0.00 0.00 90 1012.8
20260505091158 54 202 4.0 7.0 0.00 0.00 0.00 90 1012.7
20260505090655 54 191 9.0 9.0 0.00 0.00 0.00 90 1012.6
20260505090154 54 186 3.0 3.0 0.00 0.00 0.00 90 1012.8
20260505085650 54 206 5.0 6.0 0.00 0.00 0.00 90 1012.7
20260505085149 55 194 4.0 5.0 0.00 0.00 0.00 90 1012.6
20260505084646 55 197 7.0 7.0 0.00 0.00 0.00 90 1012.8
20260505084144 55 207 8.0 9.0 0.00 0.00 0.00 90 1012.7
20260505083642 55 203 5.0 6.0 0.00 0.00 0.00 90 1012.4
20260505083138 55 219 1.0 2.0 0.00 0.00 0.00 90 1012.6
20260505082634 55 255 3.0 6.0 0.00 0.00 0.00 89 1012.4
20260505082131 55 202 6.0 7.0 0.00 0.00 0.00 89 1012.4
20260505081627 55 173 5.0 6.0 0.00 0.00 0.00 89 1012.5
20260505081125 55 199 4.0 5.0 0.00 0.00 0.00 89 1012.5
20260505080621 55 203 7.0 10.0 0.00 0.00 0.00 89 1012.4
20260505080117 55 201 5.0 6.0 0.00 0.00 0.00 89 1012.5
20260505075614 55 167 8.0 10.0 0.00 0.00 0.00 88 1012.4
20260505075110 55 208 2.0 3.0 0.00 0.00 0.00 88 1012.3
20260505074607 55 212 4.0 5.0 0.00 0.00 0.00 88 1012.5
20260505074104 56 171 7.0 10.0 0.00 0.00 0.00 88 1012.2
20260505073602 56 208 4.0 7.0 0.00 0.00 0.00 88 1012.1
20260505073100 56 199 3.0 3.0 0.00 0.00 0.00 88 1012.1
20260505072555 56 179 4.0 5.0 0.00 0.00 0.00 87 1012.1
20260505072052 56 244 2.0 3.0 0.00 0.00 0.00 87 1012.2
20260505071548 56 207 7.0 10.0 0.00 0.00 0.00 87 1012.1
20260505071046 56 199 6.0 7.0 0.00 0.00 0.00 87 1011.8
20260505070543 56 245 5.0 7.0 0.00 0.00 0.00 87 1011.7
20260505070039 56 239 2.0 2.0 0.00 0.00 0.00 86 1011.7
20260505065535 56 180 7.0 9.0 0.00 0.00 0.00 86 1011.5
20260505065032 57 203 8.0 9.0 0.00 0.00 0.00 86 1011.7
20260505064528 57 200 6.0 7.0 0.00 0.00 0.00 85 1011.8
20260505064027 57 197 8.0 10.0 0.00 0.00 0.00 85 1011.8
20260505063524 57 177 3.0 3.0 0.00 0.00 0.00 85 1011.5
20260505063020 57 203 3.0 5.0 0.00 0.00 0.00 85 1011.7
20260505062517 57 179 5.0 6.0 0.00 0.00 0.00 84 1011.7
20260505062014 58 173 5.0 6.0 0.00 0.00 0.00 84 1011.5
20260505061511 58 200 5.0 6.0 0.00 0.00 0.00 84 1011.4
20260505061009 58 211 0.0 0.0 0.00 0.00 0.00 83 1011.1
20260505060506 58 226 5.0 7.0 0.00 0.00 0.00 82 1011.3
20260505060002 59 194 9.0 9.0 0.00 0.00 0.00 82 1010.9
20260505055458 59 201 8.0 9.0 0.00 0.00 0.00 82 1011.3
20260505054955 59 173 7.0 9.0 0.00 0.00 0.00 81 1011.2
20260505054453 59 193 4.0 6.0 0.00 0.00 0.00 81 1011.4
20260505053950 60 189 7.0 8.0 0.00 0.00 0.00 80 1011.0
20260505053447 60 205 4.0 6.0 0.00 0.00 0.00 80 1011.1
20260505052944 60 194 9.0 10.0 0.00 0.00 0.00 80 1010.8
20260505052441 60 172 6.0 7.0 0.00 0.00 0.00 79 1011.1
20260505051938 60 251 4.0 7.0 0.00 0.00 0.00 79 1010.8
20260505051435 61 206 5.0 6.0 0.00 0.00 0.00 78 1010.8
20260505050933 61 273 3.0 3.0 0.00 0.00 0.00 77 1010.6
20260505050431 62 207 3.0 5.0 0.00 0.00 0.00 76 1010.8